Fairbanks Ft. Wainwright, AK

5:21 PM AKST on January 16, 2018 (GMT -0900)
Ladd Army Air Field

Weather History for PAFB - November, 2012

Change the Weather History Date:

Sunday, November 25, 2012

  Actual Average Record
Temperature  
Mean Temperature -21 °F -  
Max Temperature -16 °F 3 °F 32 °F (2002)
Min Temperature -26 °F -3 °F -26 °F (2012)
Degree Days  
Heating Degree Days 86    
Moisture  
Dew Point -29 °F    
Average Humidity 73    
Maximum Humidity 78    
Minimum Humidity 70    
Precipitation  
Precipitation 0.00 in - - ()
Sea Level Pressure  
Sea Level Pressure 30.42 in    
Wind  
Wind Speed 0 mph (North)    
Max Wind Speed 0 mph    
Max Gust Speed -    
Visibility 10 miles    
Events      
Averages and records for this station are not official NWS values.
T = Trace of Precipitation, MM = Missing Value Source: NWS Daily Summary

Daily Weather History Graph

Daily Weather History Graph

Search for Another Location

Airport or City:

Trip Planner

Search our weather history database for the weather conditions in past years. The results will help you decide how hot, cold, wet, or windy it might be!

Date:

Astronomy

Nov. 25, 2012 Rise Set
Actual Time 10:01 AM AKST 3:12 PM AKST
Civil Twilight 8:51 AM AKST 4:23 PM AKST
Nautical Twilight 7:45 AM AKST 5:29 PM AKST
Astronomical Twilight 6:45 AM AKST 6:28 PM AKST
Moon 2:20 PM AKST (11/25) 6:34 AM AKST (11/25)
Length of Visible Light 7h 32m
Length of Day
5h 11m
Waxing Gibbous, 93% of the Moon is Illuminated
Nov 25
Waxing Gibbous
Nov 28
Full
Dec 6
Last Quarter
Dec 12
New
Dec 19
First Quarter

Hourly Weather History & Observations

Time (AKST) Temp. Dew Point Humidity Pressure Visibility Wind Dir Wind Speed Gust Speed Precip Events Conditions
12:56 AM -22.0 °F -27.9 °F 74% 30.31 in 10.0 mi Calm Calm - N/A   Clear
1:56 AM -23.1 °F -29.9 °F 70% 30.32 in 10.0 mi Calm Calm - N/A   Clear
2:56 AM -23.1 °F -29.9 °F 70% 30.34 in 10.0 mi Calm Calm - N/A   Clear
3:56 AM -23.1 °F -29.0 °F 74% 30.34 in 10.0 mi Calm Calm - N/A   Clear
4:56 AM -23.1 °F -29.9 °F 70% 30.36 in 10.0 mi Calm Calm - N/A   Clear
5:56 AM -24.0 °F -29.0 °F 77% 30.37 in 10.0 mi Calm Calm - N/A   Clear
6:56 AM -24.0 °F -29.9 °F 74% 30.38 in 10.0 mi Calm Calm - N/A   Clear
7:56 AM -25.1 °F -32.1 °F 70% 30.40 in 10.0 mi Calm Calm - N/A   Clear
8:56 AM -25.1 °F -31.0 °F 74% 30.40 in 10.0 mi Calm Calm - N/A   Clear
9:56 AM -26.0 °F -32.1 °F 73% 30.41 in 10.0 mi Calm Calm - N/A   Clear
10:56 AM -25.1 °F -31.0 °F 74% 30.42 in 7.0 mi Calm Calm - N/A   Clear
11:56 AM -22.0 °F -27.9 °F 74% 30.43 in 10.0 mi Calm Calm - N/A   Clear
12:56 PM -18.9 °F -26.0 °F 70% 30.45 in 10.0 mi Calm Calm - N/A   Clear
1:56 PM -16.1 °F -23.1 °F 71% 30.45 in 10.0 mi Calm Calm - N/A   Clear
2:56 PM -18.0 °F -23.1 °F 78% 30.46 in 10.0 mi Calm Calm - N/A   Clear
3:56 PM -20.0 °F -26.0 °F 74% 30.45 in 10.0 mi Calm Calm - N/A   Clear
4:56 PM -20.0 °F -27.0 °F 70% 30.46 in 10.0 mi Calm Calm - N/A   Clear
5:56 PM -22.0 °F -27.9 °F 74% 30.47 in 10.0 mi Calm Calm - N/A   Clear
6:56 PM -23.1 °F -29.0 °F 74% 30.48 in 10.0 mi Calm Calm - N/A   Clear
7:56 PM -23.1 °F -29.0 °F 74% 30.48 in 10.0 mi Calm Calm - N/A   Clear
8:56 PM -23.1 °F -29.9 °F 70% 30.49 in 10.0 mi Calm Calm - N/A   Clear
9:56 PM -24.0 °F -29.9 °F 74% 30.49 in 10.0 mi Calm Calm - N/A   Clear
10:56 PM -24.0 °F -29.9 °F 74% 30.50 in 8.0 mi Calm Calm - N/A   Clear
11:56 PM -23.1 °F -29.9 °F 70% 30.50 in 10.0 mi Calm Calm - N/A   Clear